| time (UTC) | temp C | wind direction | speed KPH | gust KPH | rain 1hr cm | rain 24hr cm | rain mn cm | humidity % | barometer mb |
| 20260503200509 | 17 | 86 | 1.6 | 6.4 | 0.00 | 0.00 | 0.00 | 28 | 1017.4 |
| 20260503200032 | 17 | 67 | 1.6 | 6.4 | 0.00 | 0.00 | 0.00 | 29 | 1017.5 |
| 20260503195507 | 17 | 90 | 1.6 | 9.7 | 0.00 | 0.00 | 0.00 | 31 | 1017.8 |
| 20260503195003 | 17 | 138 | 1.6 | 9.7 | 0.00 | 0.00 | 0.00 | 27 | 1017.9 |
| 20260503194523 | 17 | 86 | 1.6 | 9.7 | 0.00 | 0.00 | 0.00 | 28 | 1017.9 |
| 20260503194007 | 16 | 142 | 3.2 | 9.7 | 0.00 | 0.00 | 0.00 | 26 | 1018.0 |
| 20260503193506 | 16 | 136 | 1.6 | 8.0 | 0.00 | 0.00 | 0.00 | 31 | 1018.0 |
| 20260503193020 | 16 | 57 | 1.6 | 6.4 | 0.00 | 0.00 | 0.00 | 28 | 1018.1 |
| 20260503192509 | 16 | 101 | 1.6 | 6.4 | 0.00 | 0.00 | 0.00 | 28 | 1018.1 |
| 20260503192015 | 16 | 156 | 1.6 | 8.0 | 0.00 | 0.00 | 0.00 | 27 | 1018.2 |
| 20260503191526 | 16 | 82 | 3.2 | 9.7 | 0.00 | 0.00 | 0.00 | 30 | 1018.4 |
| 20260503191009 | 16 | 85 | 3.2 | 9.7 | 0.00 | 0.00 | 0.00 | 29 | 1018.4 |
| 20260503190509 | 15 | 114 | 0.0 | 9.7 | 0.00 | 0.00 | 0.00 | 28 | 1018.5 |
| 20260503190026 | 15 | 111 | 1.6 | 9.7 | 0.00 | 0.00 | 0.00 | 28 | 1018.4 |
| 20260503185510 | 15 | 92 | 1.6 | 6.4 | 0.00 | 0.00 | 0.00 | 29 | 1018.7 |
| 20260503185013 | 15 | 98 | 1.6 | 6.4 | 0.00 | 0.00 | 0.00 | 30 | 1018.7 |
| 20260503184529 | 15 | 63 | 1.6 | 6.4 | 0.00 | 0.00 | 0.00 | 30 | 1018.8 |
| 20260503184006 | 15 | 139 | 0.0 | 6.4 | 0.00 | 0.00 | 0.00 | 28 | 1018.8 |
| 20260503183510 | 15 | 140 | 1.6 | 9.7 | 0.00 | 0.00 | 0.00 | 30 | 1018.7 |
| 20260503183025 | 15 | 13 | 0.0 | 9.7 | 0.00 | 0.00 | 0.00 | 28 | 1018.7 |
| 20260503182507 | 15 | 67 | 0.0 | 9.7 | 0.00 | 0.00 | 0.00 | 28 | 1018.7 |
| 20260503182009 | 15 | 61 | 1.6 | 8.0 | 0.00 | 0.00 | 0.00 | 31 | 1018.9 |
| 20260503181535 | 15 | 117 | 0.0 | 4.8 | 0.00 | 0.00 | 0.00 | 28 | 1019.0 |
| 20260503181008 | 14 | 87 | 0.0 | 6.4 | 0.00 | 0.00 | 0.00 | 30 | 1019.1 |
| 20260503180508 | 14 | 94 | 1.6 | 8.0 | 0.00 | 0.00 | 0.00 | 29 | 1019.2 |
| 20260503180024 | 14 | 119 | 0.0 | 8.0 | 0.00 | 0.00 | 0.00 | 28 | 1019.3 |
| 20260503175507 | 14 | 46 | 1.6 | 4.8 | 0.00 | 0.00 | 0.00 | 27 | 1019.3 |
| 20260503175010 | 14 | 99 | 1.6 | 6.4 | 0.00 | 0.00 | 0.00 | 30 | 1019.3 |
| 20260503174529 | 14 | 132 | 1.6 | 6.4 | 0.00 | 0.00 | 0.00 | 29 | 1019.5 |
| 20260503174011 | 14 | 147 | 1.6 | 6.4 | 0.00 | 0.00 | 0.00 | 32 | 1019.5 |
| 20260503173509 | 14 | 136 | 0.0 | 12.9 | 0.00 | 0.00 | 0.00 | 28 | 1019.6 |
| 20260503173042 | 14 | 79 | 3.2 | 12.9 | 0.00 | 0.00 | 0.00 | 27 | 1019.8 |
| 20260503172506 | 14 | 144 | 0.0 | 4.8 | 0.00 | 0.00 | 0.00 | 27 | 1019.9 |
| 20260503172006 | 13 | 29 | 1.6 | 6.4 | 0.00 | 0.00 | 0.00 | 28 | 1020.1 |
| 20260503171520 | 13 | 73 | 1.6 | 6.4 | 0.00 | 0.00 | 0.00 | 29 | 1020.2 |
| 20260503171007 | 13 | 130 | 1.6 | 8.0 | 0.00 | 0.00 | 0.00 | 29 | 1020.3 |
| 20260503170508 | 13 | 159 | 1.6 | 8.0 | 0.00 | 0.00 | 0.00 | 28 | 1020.4 |
| 20260503151010 | 11 | 151 | 0.0 | 4.8 | 0.00 | 0.00 | 0.00 | 38 | 1021.3 |
| 20260503150507 | 11 | 57 | 0.0 | 3.2 | 0.00 | 0.00 | 0.00 | 35 | 1021.3 |
| 20260503131003 | 7 | 114 | 0.0 | 1.6 | 0.00 | 0.00 | 0.00 | 53 | 1020.9 |
| 20260503130508 | 7 | 97 | 0.0 | 1.6 | 0.00 | 0.00 | 0.00 | 55 | 1020.8 |
| 20260503110508 | 1 | 254 | 0.0 | 0.0 | 0.00 | 0.00 | 0.00 | 82 | 1020.3 |
| 20260503090508 | 1 | 254 | 0.0 | 0.0 | 0.00 | 0.00 | 0.00 | 80 | 1019.8 |
| 20260503081517 | 2 | 254 | 0.0 | 0.0 | 0.00 | 0.00 | 0.00 | 77 | 1019.4 |
| 20260503081008 | 2 | 254 | 0.0 | 0.0 | 0.00 | 0.00 | 0.00 | 77 | 1019.3 |
| 20260503080511 | 2 | 254 | 0.0 | 0.0 | 0.00 | 0.00 | 0.00 | 77 | 1019.3 |
| 20260503072506 | 3 | 254 | 0.0 | 0.0 | 0.00 | 0.00 | 0.00 | 73 | 1019.2 |
| 20260503072005 | 3 | 254 | 0.0 | 0.0 | 0.00 | 0.00 | 0.00 | 73 | 1019.2 |
| 20260503071516 | 3 | 254 | 0.0 | 0.0 | 0.00 | 0.00 | 0.00 | 72 | 1019.2 |
| 20260503071005 | 3 | 254 | 0.0 | 0.0 | 0.00 | 0.00 | 0.00 | 72 | 1019.2 |
| 20260503070505 | 3 | 254 | 0.0 | 0.0 | 0.00 | 0.00 | 0.00 | 71 | 1019.2 |
| 20260503055009 | 5 | 254 | 0.0 | 0.0 | 0.00 | 0.00 | 0.00 | 58 | 1019.3 |
| 20260503054504 | 5 | 254 | 0.0 | 0.0 | 0.00 | 0.00 | 0.00 | 57 | 1019.4 |
| 20260503054003 | 5 | 254 | 0.0 | 0.0 | 0.00 | 0.00 | 0.00 | 58 | 1019.5 |
| 20260503053502 | 5 | 254 | 0.0 | 1.6 | 0.00 | 0.00 | 0.00 | 59 | 1019.4 |
| 20260503053002 | 5 | 252 | 0.0 | 1.6 | 0.00 | 0.00 | 0.00 | 59 | 1019.4 |
| 20260503052503 | 5 | 271 | 0.0 | 0.0 | 0.00 | 0.00 | 0.00 | 57 | 1019.5 |
| 20260503052001 | 5 | 271 | 0.0 | 0.0 | 0.00 | 0.00 | 0.00 | 57 | 1019.4 |
| 20260503051507 | 6 | 271 | 0.0 | 0.0 | 0.00 | 0.00 | 0.00 | 57 | 1019.4 |
| 20260503051010 | 6 | 262 | 0.0 | 1.6 | 0.00 | 0.00 | 0.00 | 57 | 1019.5 |
| 20260503050505 | 6 | 262 | 0.0 | 1.6 | 0.00 | 0.00 | 0.00 | 57 | 1019.5 |
| 20260503050012 | 6 | 261 | 0.0 | 3.2 | 0.00 | 0.00 | 0.00 | 57 | 1019.5 |
| 20260503045510 | 6 | 255 | 0.0 | 3.2 | 0.00 | 0.00 | 0.00 | 56 | 1019.5 |
| 20260503045010 | 6 | 249 | 0.0 | 3.2 | 0.00 | 0.00 | 0.00 | 57 | 1019.4 |
| 20260503044545 | 6 | 281 | 0.0 | 4.8 | 0.00 | 0.00 | 0.00 | 56 | 1019.5 |
| 20260503044005 | 6 | 251 | 0.0 | 4.8 | 0.00 | 0.00 | 0.00 | 57 | 1019.5 |
| 20260503043508 | 6 | 251 | 0.0 | 4.8 | 0.00 | 0.00 | 0.00 | 57 | 1019.5 |
| 20260503043019 | 6 | 322 | 0.0 | 1.6 | 0.00 | 0.00 | 0.00 | 58 | 1019.5 |
| 20260503042502 | 6 | 257 | 0.0 | 3.2 | 0.00 | 0.00 | 0.00 | 57 | 1019.5 |
| 20260503042002 | 6 | 266 | 0.0 | 3.2 | 0.00 | 0.00 | 0.00 | 57 | 1019.5 |
| 20260503041504 | 6 | 296 | 0.0 | 3.2 | 0.00 | 0.00 | 0.00 | 57 | 1019.5 |
| 20260503041003 | 6 | 246 | 0.0 | 4.8 | 0.00 | 0.00 | 0.00 | 58 | 1019.4 |
| 20260503040511 | 6 | 273 | 0.0 | 4.8 | 0.00 | 0.00 | 0.00 | 58 | 1019.3 |
| 20260503040014 | 6 | 270 | 0.0 | 3.2 | 0.00 | 0.00 | 0.00 | 60 | 1019.3 |
| 20260503035506 | 6 | 250 | 0.0 | 1.6 | 0.00 | 0.00 | 0.00 | 62 | 1019.3 |
| 20260503035006 | 6 | 271 | 0.0 | 0.0 | 0.00 | 0.00 | 0.00 | 63 | 1019.3 |
| 20260503034514 | 6 | 271 | 0.0 | 0.0 | 0.00 | 0.00 | 0.00 | 64 | 1019.3 |
| 20260503034007 | 6 | 225 | 0.0 | 0.0 | 0.00 | 0.00 | 0.00 | 64 | 1019.2 |
| 20260503033507 | 6 | 199 | 0.0 | 0.0 | 0.00 | 0.00 | 0.00 | 63 | 1019.2 |
| 20260503033018 | 6 | 199 | 0.0 | 0.0 | 0.00 | 0.00 | 0.00 | 63 | 1019.2 |
| 20260503032505 | 6 | 199 | 0.0 | 0.0 | 0.00 | 0.00 | 0.00 | 64 | 1019.1 |
| 20260503032012 | 6 | 199 | 0.0 | 0.0 | 0.00 | 0.00 | 0.00 | 65 | 1019.1 |
| 20260503031524 | 6 | 199 | 0.0 | 0.0 | 0.00 | 0.00 | 0.00 | 62 | 1019.1 |
| 20260503031002 | 6 | 199 | 0.0 | 0.0 | 0.00 | 0.00 | 0.00 | 62 | 1019.1 |
| 20260503030503 | 6 | 199 | 0.0 | 0.0 | 0.00 | 0.00 | 0.00 | 62 | 1019.1 |
| 20260503030010 | 7 | 199 | 0.0 | 0.0 | 0.00 | 0.00 | 0.00 | 63 | 1019.1 |
| 20260503025505 | 7 | 199 | 0.0 | 0.0 | 0.00 | 0.00 | 0.00 | 61 | 1019.1 |
| 20260503025007 | 7 | 199 | 0.0 | 0.0 | 0.00 | 0.00 | 0.00 | 61 | 1019.0 |
| 20260503024509 | 7 | 199 | 0.0 | 1.6 | 0.00 | 0.00 | 0.00 | 62 | 1018.9 |
| 20260503024006 | 7 | 197 | 0.0 | 6.4 | 0.00 | 0.00 | 0.00 | 62 | 1018.9 |
| 20260503023509 | 7 | 193 | 0.0 | 6.4 | 0.00 | 0.00 | 0.00 | 63 | 1018.8 |
| 20260503023016 | 7 | 211 | 0.0 | 0.0 | 0.00 | 0.00 | 0.00 | 64 | 1018.8 |
| 20260503022506 | 7 | 211 | 0.0 | 0.0 | 0.00 | 0.00 | 0.00 | 65 | 1018.7 |
| 20260503022013 | 7 | 211 | 0.0 | 0.0 | 0.00 | 0.00 | 0.00 | 63 | 1018.6 |
| 20260503021527 | 7 | 211 | 0.0 | 0.0 | 0.00 | 0.00 | 0.00 | 63 | 1018.5 |
| 20260503021011 | 7 | 211 | 0.0 | 0.0 | 0.00 | 0.00 | 0.00 | 63 | 1018.4 |
| 20260503020512 | 7 | 212 | 0.0 | 0.0 | 0.00 | 0.00 | 0.00 | 63 | 1018.3 |
| 20260503020034 | 8 | 212 | 0.0 | 0.0 | 0.00 | 0.00 | 0.00 | 60 | 1018.3 |
| 20260503015512 | 8 | 211 | 0.0 | 0.0 | 0.00 | 0.00 | 0.00 | 61 | 1018.2 |
| 20260503015012 | 8 | 211 | 0.0 | 0.0 | 0.00 | 0.00 | 0.00 | 62 | 1018.2 |
| 20260503014531 | 8 | 0.0 | 0.0 | 0.00 | 0.00 | 0.00 | 59 | 1018.1 | |
| 20260503014009 | 8 | 210 | 0.0 | 0.0 | 0.00 | 0.00 | 0.00 | 59 | 1018.1 |
| 20260503013507 | 8 | 211 | 0.0 | 0.0 | 0.00 | 0.00 | 0.00 | 58 | 1018.0 |
| 20260503013032 | 8 | 212 | 0.0 | 0.0 | 0.00 | 0.00 | 0.00 | 57 | 1018.0 |
| 20260503012506 | 8 | 211 | 0.0 | 0.0 | 0.00 | 0.00 | 0.00 | 35 | 1017.9 |
| 20260503012015 | 9 | 212 | 0.0 | 0.0 | 0.00 | 0.00 | 0.00 | 1017.9 | |
| 20260503011528 | 9 | 211 | 0.0 | 0.0 | 0.00 | 0.00 | 0.00 | 35 | 1017.9 |
| 20260503011007 | 9 | 211 | 0.0 | 3.2 | 0.00 | 0.00 | 0.00 | 54 | 1017.8 |
| 20260503010510 | 9 | 211 | 0.0 | 6.4 | 0.00 | 0.00 | 0.00 | 53 | 1017.8 |
| 20260503010020 | 9 | 195 | 0.0 | 6.4 | 0.00 | 0.00 | 0.00 | 53 | 1017.7 |
| 20260503005509 | 9 | 187 | 0.0 | 3.2 | 0.00 | 0.00 | 0.00 | 53 | 1017.7 |
| 20260503005010 | 10 | 181 | 0.0 | 1.6 | 0.00 | 0.00 | 0.00 | 52 | 1017.6 |
| 20260503004526 | 10 | 167 | 0.0 | 0.0 | 0.00 | 0.00 | 0.00 | 53 | 1017.5 |
| 20260503004008 | 10 | 167 | 0.0 | 3.2 | 0.00 | 0.00 | 0.00 | 51 | 1017.5 |
| 20260503003504 | 10 | 207 | 0.0 | 3.2 | 0.00 | 0.00 | 0.00 | 50 | 1017.5 |
| 20260503003007 | 10 | 200 | 0.0 | 3.2 | 0.00 | 0.00 | 0.00 | 50 | 1017.4 |
| 20260503002503 | 10 | 192 | 0.0 | 6.4 | 0.00 | 0.00 | 0.00 | 49 | 1017.3 |
| 20260503002004 | 10 | 209 | 0.0 | 6.4 | 0.00 | 0.00 | 0.00 | 48 | 1017.3 |
| 20260503001516 | 10 | 174 | 0.0 | 3.2 | 0.00 | 0.00 | 0.00 | 49 | 1017.2 |
| 20260503001006 | 10 | 209 | 0.0 | 6.4 | 0.00 | 0.00 | 0.00 | 48 | 1017.1 |
| 20260503000506 | 10 | 224 | 0.0 | 6.4 | 0.00 | 0.00 | 0.00 | 48 | 1017.1 |
| 20260503000027 | 10 | 195 | 0.0 | 6.4 | 0.00 | 0.00 | 0.00 | 48 | 1017.0 |
| 20260502235507 | 10 | 202 | 1.6 | 12.9 | 0.00 | 0.00 | 0.00 | 45 | 1017.0 |
| 20260502235008 | 10 | 229 | 3.2 | 12.9 | 0.00 | 0.00 | 0.00 | 45 | 1017.0 |
| 20260502234542 | 10 | 246 | 1.6 | 9.7 | 0.00 | 0.00 | 0.00 | 47 | 1016.9 |
| 20260502234009 | 11 | 219 | 1.6 | 14.5 | 0.00 | 0.00 | 0.00 | 45 | 1016.8 |
| 20260502233509 | 11 | 284 | 1.6 | 14.5 | 0.00 | 0.00 | 0.00 | 46 | 1016.7 |
| 20260502233027 | 11 | 221 | 6.4 | 12.9 | 0.00 | 0.00 | 0.00 | 44 | 1016.8 |
| 20260502232507 | 11 | 200 | 3.2 | 9.7 | 0.00 | 0.00 | 0.00 | 45 | 1016.8 |
| 20260502232006 | 11 | 173 | 4.8 | 9.7 | 0.00 | 0.00 | 0.00 | 45 | 1016.8 |
| 20260502231511 | 11 | 291 | 1.6 | 8.0 | 0.00 | 0.00 | 0.00 | 44 | 1016.7 |
| 20260502231008 | 11 | 195 | 1.6 | 9.7 | 0.00 | 0.00 | 0.00 | 45 | 1016.8 |
| 20260502230507 | 11 | 221 | 3.2 | 12.9 | 0.00 | 0.00 | 0.00 | 44 | 1016.8 |
| 20260502230022 | 11 | 198 | 1.6 | 12.9 | 0.00 | 0.00 | 0.00 | 46 | 1016.8 |
| 20260502225508 | 11 | 222 | 0.0 | 9.7 | 0.00 | 0.00 | 0.00 | 46 | 1016.9 |
| 20260502225007 | 11 | 227 | 3.2 | 9.7 | 0.00 | 0.00 | 0.00 | 45 | 1016.8 |
| 20260502224521 | 11 | 229 | 1.6 | 9.7 | 0.00 | 0.00 | 0.00 | 47 | 1016.8 |
| 20260502224003 | 11 | 209 | 3.2 | 11.3 | 0.00 | 0.00 | 0.00 | 46 | 1017.0 |
| 20260502223503 | 11 | 206 | 3.2 | 14.5 | 0.00 | 0.00 | 0.00 | 44 | 1017.0 |
| 20260502223015 | 11 | 145 | 1.6 | 14.5 | 0.00 | 0.00 | 0.00 | 45 | 1017.0 |
| 20260502222503 | 11 | 240 | 6.4 | 14.5 | 0.00 | 0.00 | 0.00 | 46 | 1017.0 |
| 20260502222005 | 11 | 204 | 1.6 | 6.4 | 0.00 | 0.00 | 0.00 | 45 | 1017.1 |
| 20260502221510 | 11 | 170 | 0.0 | 11.3 | 0.00 | 0.00 | 0.00 | 46 | 1017.1 |
| 20260502221010 | 11 | 214 | 1.6 | 11.3 | 0.00 | 0.00 | 0.00 | 47 | 1017.1 |
| 20260502220508 | 11 | 134 | 0.0 | 6.4 | 0.00 | 0.00 | 0.00 | 46 | 1017.0 |
| 20260502220014 | 11 | 258 | 1.6 | 8.0 | 0.00 | 0.00 | 0.00 | 44 | 1017.0 |
| 20260502215507 | 11 | 242 | 1.6 | 8.0 | 0.00 | 0.00 | 0.00 | 46 | 1016.9 |
| 20260502215008 | 11 | 250 | 0.0 | 9.7 | 0.00 | 0.00 | 0.00 | 46 | 1016.8 |
| 20260502214504 | 11 | 310 | 3.2 | 9.7 | 0.00 | 0.00 | 0.00 | 46 | 1016.8 |
| 20260502214007 | 11 | 249 | 1.6 | 11.3 | 0.00 | 0.00 | 0.00 | 46 | 1016.7 |
| 20260502213503 | 11 | 244 | 3.2 | 16.1 | 0.00 | 0.00 | 0.00 | 46 | 1016.7 |
| 20260502213004 | 11 | 224 | 4.8 | 16.1 | 0.00 | 0.00 | 0.00 | 46 | 1016.7 |
| 20260502212503 | 11 | 155 | 3.2 | 12.9 | 0.00 | 0.00 | 0.00 | 45 | 1016.7 |
| 20260502212005 | 11 | 240 | 1.6 | 8.0 | 0.00 | 0.00 | 0.00 | 45 | 1016.6 |
| 20260502211505 | 11 | 195 | 1.6 | 9.7 | 0.00 | 0.00 | 0.00 | 46 | 1016.7 |
| 20260502211005 | 11 | 200 | 3.2 | 9.7 | 0.00 | 0.00 | 0.00 | 45 | 1016.6 |
| 20260502210507 | 11 | 213 | 1.6 | 11.3 | 0.00 | 0.00 | 0.00 | 45 | 1016.7 |
| 20260502210010 | 11 | 221 | 3.2 | 11.3 | 0.00 | 0.00 | 0.00 | 46 | 1016.7 |
| 20260502205508 | 11 | 248 | 1.6 | 16.1 | 0.00 | 0.00 | 0.00 | 45 | 1016.7 |
| 20260502205009 | 11 | 227 | 1.6 | 16.1 | 0.00 | 0.00 | 0.00 | 45 | 1016.7 |
| 20260502204516 | 11 | 235 | 4.8 | 11.3 | 0.00 | 0.00 | 0.00 | 43 | 1016.8 |
| 20260502204007 | 12 | 260 | 4.8 | 12.9 | 0.00 | 0.00 | 0.00 | 44 | 1016.7 |
| 20260502203506 | 12 | 162 | 0.0 | 14.5 | 0.00 | 0.00 | 0.00 | 44 | 1016.8 |
| 20260502203004 | 12 | 180 | 4.8 | 14.5 | 0.00 | 0.00 | 0.00 | 43 | 1016.9 |
| 20260502202503 | 12 | 192 | 4.8 | 11.3 | 0.00 | 0.00 | 0.00 | 45 | 1017.0 |
| 20260502202004 | 11 | 200 | 0.0 | 11.3 | 0.00 | 0.00 | 0.00 | 44 | 1016.9 |
| 20260502201503 | 11 | 217 | 3.2 | 11.3 | 0.00 | 0.00 | 0.00 | 43 | 1016.9 |
| 20260502201004 | 11 | 199 | 4.8 | 9.7 | 0.00 | 0.00 | 0.00 | 46 | 1017.0 |